Date,TemperatureHighF,TemperatureAvgF,TemperatureLowF,DewpointHighF,DewpointAvgF,DewpointLowF,HumidityHigh,HumidityAvg,HumidityLow,PressureMaxIn,PressureMinIn,WindSpeedMaxMPH,WindSpeedAvgMPH,GustSpeedMaxMPH,PrecipitationSumIn
2013-1-1,36.7,26.8,18.1,14.4,12.3,9.2,72,55,38,30.29,30.15,8,2,9,0.00
2013-1-2,36.9,25.6,16.6,16.4,13.0,9.9,75,60,40,30.31,30.18,9,2,10,0.00
2013-1-3,38.2,25.5,16.0,15.5,8.7,1.4,75,52,24,30.40,30.28,11,1,11,0.00
2013-1-4,37.3,24.9,15.5,12.2,8.1,4.7,66,50,34,30.36,30.23,8,1,9,0.00
2013-1-5,37.4,25.0,14.8,14.4,10.3,6.5,71,55,35,30.41,30.27,8,2,8,0.00
2013-1-6,35.4,25.4,18.2,16.3,12.4,10.2,72,59,38,30.34,30.09,9,2,9,0.00
2013-1-7,40.7,28.6,20.2,17.3,14.1,12.2,72,55,35,30.15,30.06,11,2,11,0.00
2013-1-8,43.9,29.8,18.3,18.7,15.4,11.4,75,56,34,30.32,30.08,10,2,10,0.00
2013-1-9,46.3,32.6,22.0,25.0,20.4,15.4,77,62,41,30.40,30.10,8,2,8,0.00
2013-1-10,45.1,34.2,27.8,27.7,23.6,18.8,84,66,37,30.10,29.62,32,3,32,0.00
2013-1-11,34.4,29.4,19.7,18.9,6.5,1.3,53,38,27,29.98,29.70,31,9,31,0.00
2013-1-12,30.6,22.3,12.2,9.8,5.6,2.9,72,50,32,30.03,29.94,9,2,9,0.00
2013-1-13,28.4,22.1,12.1,4.7,1.5,-1.1,63,41,30,30.06,29.99,12,2,12,0.00
2013-1-14,27.4,19.6,10.4,1.1,-2.8,-6.5,54,37,23,30.25,30.06,16,2,16,0.00
2013-1-15,30.1,19.1,9.1,3.3,-0.9,-5.0,54,42,28,30.42,30.25,8,2,8,0.00
2013-1-16,35.7,24.3,13.4,10.8,6.4,2.1,61,47,32,30.49,30.39,9,2,9,0.00
2013-1-17,39.7,26.6,16.0,14.9,11.1,7.2,70,53,34,30.53,30.40,9,2,9,0.00
2013-1-18,41.7,27.8,17.0,18.1,12.9,9.2,72,55,33,30.45,30.32,8,2,8,0.00
2013-1-19,43.5,28.9,17.3,19.2,15.0,10.0,75,57,35,30.47,30.34,8,2,9,0.00
2013-1-20,43.4,29.2,17.9,21.2,16.2,11.7,78,60,37,30.39,30.26,8,2,8,0.00
2013-1-21,44.2,29.8,17.3,21.2,16.2,11.2,78,58,35,30.40,30.28,8,2,9,0.00
2013-1-22,46.1,31.2,20.2,21.7,16.4,12.9,74,56,34,30.39,30.29,7,1,7,0.00
2013-1-23,42.9,32.5,21.4,21.2,18.5,14.5,75,57,39,30.42,30.31,7,1,7,0.00
2013-1-24,43.2,38.5,33.6,29.8,23.4,20.3,70,55,44,30.33,30.27,6,1,6,0.00
2013-1-25,47.9,41.9,37.6,34.3,31.6,29.2,75,67,55,30.32,30.17,8,1,9,0.00
2013-1-26,42.5,40.6,39.1,39.8,37.9,33.7,94,90,71,30.17,29.90,5,0,5,0.69
2013-1-27,50.4,42.8,37.3,45.0,38.0,26.5,97,85,43,29.97,29.82,20,2,21,0.01
2013-1-28,41.6,37.1,29.7,35.5,27.6,8.7,90,70,40,29.95,29.83,27,5,27,0.03
2013-1-29,42.7,33.2,22.7,23.1,15.2,7.6,69,47,39,30.17,29.93,36,7,36,0.00
2013-1-30,49.4,38.0,27.3,28.2,22.2,16.5,80,54,37,30.25,30.16,18,3,20,0.00
2013-1-31,50.2,38.0,27.6,31.8,28.2,23.9,87,69,43,30.32,30.23,10,2,10,0.00